Location: Bailey Volunteer Fire Department
(33.4359°N, 96.1680°W)
Time: 17:32:09
(UTC+00:00)

Thor Agena Rocket - Pass Details

Date: 13 December 2025
Orbit: 754 x 803 km, 99.1° (Epoch: 13 January)

Event Time Altitude Azimuth Distance (km) Brightness Sun altitude
Rises 12:19:16 0° 18° (NNE) 3,218 6.7 -12.5°
Reaches altitude 10° 12:21:36 10° 22° (NNE) 2,286 6.0 -12.0°
Maximum altitude 12:26:34 59° 102° (ESE) 866 4.2 -11.0°
Drops below altitude 10° 12:31:29 10° 182° (S) 2,271 6.2 -10.1°
Sets 12:33:47 0° 185° (S) 3,194 6.9 -9.6°
